Lapse_Rate
7.5 7.5 7.4 7.3 7.3 7.1 6.9 6.9 6.9 6.9 7.0 7.0 7.3 7.2 7.0 6.8 6.9 6.9 6.7 6.5 6.5 6.2 6.3 6.0 6.2 6.3 6.1 6.0 5.9 5.8 5.7 5.6 5.3 5.5 5.6 5.6 6.0 6.1 6.0 6.3 6.3 6.2 6.1
7.6 7.7 7.7 7.6 7.4 7.2 7.3 7.6 7.6 7.5 7.3 7.4 7.4 7.2 7.1 7.0 6.8 6.6 6.5 6.5 6.3 6.3 6.2 6.2 6.5 6.5 6.4 6.1 6.0 5.9 5.8 5.7 5.7 5.7 5.5 5.5 5.2 6.0 6.2 6.3 6.2 6.1 6.2
7.9 7.9 7.9 7.8 7.7 7.8 7.7 7.6 7.5 7.5 7.4 7.3 7.4 7.3 7.2 7.1 7.1 6.8 6.4 6.2 6.3 6.2 6.1 6.4 6.6 6.4 6.3 6.1 5.8 5.9 5.9 5.9 5.9 5.7 5.8 5.6 5.4 5.5 5.8 6.1 6.3 6.2 6.2
8.3 8.2 8.2 8.0 8.0 7.8 7.8 7.8 7.6 7.5 7.5 7.5 7.5 7.4 7.2 7.1 6.9 6.5 6.3 6.3 6.3 6.2 6.3 6.4 6.7 6.4 6.1 6.1 6.1 5.9 5.8 5.7 5.5 5.6 5.8 5.8 5.7 5.7 5.9 5.9 6.0 6.2 6.2
8.4 8.4 8.3 8.2 8.1 7.9 7.9 7.9 7.9 7.7 7.7 7.5 7.5 7.5 7.2 7.0 6.9 6.6 6.4 6.4 6.3 6.3 6.2 6.1 6.4 6.3 6.1 6.0 5.9 5.8 5.8 5.7 5.7 5.8 5.7 5.6 5.9 5.9 6.0 6.1 5.9 5.4 5.2
8.3 8.3 8.0 7.8 7.9 7.9 7.8 7.7 7.7 7.7 7.6 7.5 7.4 7.4 7.2 7.0 6.8 6.6 6.4 6.5 6.4 6.4 6.3 6.1 6.1 6.2 6.2 5.9 5.8 5.5 5.6 5.6 5.6 5.8 5.7 5.8 5.6 5.6 5.7 5.8 5.6 5.5 5.4
8.3 8.2 8.2 8.1 7.9 7.8 7.8 7.7 7.7 7.7 7.5 7.4 7.3 7.2 7.0 6.7 6.5 6.2 6.5 6.7 6.5 6.4 6.2 6.2 6.2 6.1 6.0 5.8 5.5 5.4 5.6 5.5 6.1 5.9 5.8 5.8 5.8 5.6 5.7 5.9 5.8 5.6 5.4
8.7 8.5 8.5 8.5 8.3 8.2 8.0 7.8 7.8 7.7 7.5 7.5 7.4 7.3 6.9 6.6 6.6 6.3 6.0 6.5 6.6 6.1 6.3 6.3 6.0 6.0 6.0 5.6 5.7 5.8 5.9 6.0 6.0 5.8 5.6 5.8 5.7 5.7 6.0 5.8 5.6 5.6 5.4
8.9 8.8 8.8 8.6 8.5 8.4 8.2 8.0 7.8 7.6 7.5 7.5 7.3 7.3 7.1 6.9 6.6 6.2 6.3 6.7 6.5 6.4 6.4 6.3 6.1 6.0 5.9 6.0 5.8 6.1 5.7 5.8 5.7 5.5 6.0 5.9 5.7 5.9 5.8 5.7 5.6 5.5 5.4
9.0 9.0 8.9 8.9 8.8 8.5 8.3 8.1 7.9 7.7 7.5 7.5 7.4 7.3 7.1 6.9 6.6 6.5 6.3 6.4 6.5 6.3 6.3 6.3 6.1 6.1 5.9 5.8 5.7 5.7 5.7 5.9 5.5 5.6 5.7 5.6 5.8 5.4 5.6 5.6 5.6 5.5 5.3
8.9 8.9 8.9 8.8 8.8 8.7 8.5 8.3 8.0 7.7 7.7 7.7 7.6 7.5 7.3 7.1 6.8 6.6 6.6 6.1 5.9 6.1 6.1 6.0 6.1 5.5 5.4 5.7 5.8 5.5 5.4 5.6 5.6 5.9 5.4 5.8 5.5 5.5 5.4 5.4 5.4 5.4 5.4
8.4 8.5 8.7 8.6 8.6 8.5 8.5 8.4 8.2 8.1 7.9 7.8 7.7 7.6 7.4 7.1 6.9 6.8 6.6 6.1 6.0 6.2 6.1 5.9 5.5 5.5 5.6 5.1 5.2 5.6 5.6 5.9 5.9 5.7 5.6 5.6 5.4 5.4 5.4 5.3 5.5 5.5 5.4
8.2 8.1 8.2 8.5 8.5 8.5 8.4 8.4 8.3 8.2 8.1 7.9 7.6 7.4 7.2 7.1 7.0 6.7 6.5 6.2 6.1 6.2 5.8 6.0 5.4 4.7 5.6 5.7 5.7 5.5 5.9 6.0 5.5 5.6 5.6 5.5 5.1 5.0 5.3 5.4 5.5 5.5 5.4
8.4 8.2 8.0 8.1 8.2 8.2 8.2 8.2 8.1 8.1 7.8 7.7 7.5 7.5 7.3 7.1 6.8 6.6 6.4 6.2 6.2 6.2 5.9 5.7 5.8 5.5 5.7 5.9 6.0 6.0 5.7 5.7 5.8 5.8 5.5 5.2 5.0 5.0 5.3 5.4 5.4 5.4 5.7
8.2 8.2 8.3 8.0 8.0 8.0 8.1 8.0 7.9 7.9 7.8 7.6 7.6 7.5 7.3 7.0 6.8 6.6 6.4 6.1 5.8 5.8 5.8 5.8 6.0 6.0 6.1 5.8 5.5 5.4 5.3 5.7 5.8 5.6 5.6 5.3 5.3 5.2 5.3 5.3 5.4 5.3 5.9
8.1 8.1 8.4 8.4 8.3 8.2 8.1 8.1 8.1 7.9 7.8 7.5 7.4 7.2 6.9 6.6 6.4 6.2 6.1 6.1 5.7 5.7 5.4 5.6 5.6 5.7 5.5 5.5 5.7 5.4 5.2 5.2 5.5 5.5 5.3 5.1 5.2 5.4 5.3 5.4 5.5 5.8 6.4
7.8 7.9 8.1 8.4 8.5 8.4 8.4 8.2 8.1 7.9 7.7 7.4 7.1 6.8 6.5 6.3 6.2 6.2 6.1 5.5 5.3 5.3 5.4 5.4 5.3 5.3 5.4 5.4 5.5 5.2 5.1 5.1 5.0 4.9 4.9 5.0 5.0 5.0 5.2 5.4 5.7 6.2 6.7
7.5 7.6 7.7 7.9 8.0 8.0 8.0 7.9 7.8 7.7 7.4 7.0 6.7 6.4 6.3 6.2 6.2 5.6 5.1 5.0 5.0 4.9 5.3 5.3 5.4 5.6 5.5 5.4 5.3 5.1 4.9 4.8 4.8 4.8 4.9 5.0 5.1 5.1 5.1 5.6 5.8 6.4 6.7
7.3 7.4 7.5 7.7 7.8 7.9 7.8 7.7 7.4 7.2 6.8 6.5 6.3 6.2 6.0 5.8 5.6 5.5 5.1 4.9 4.7 4.9 5.1 5.3 5.3 5.2 5.3 5.2 5.0 4.8 4.8 4.8 5.0 5.1 5.1 5.1 5.2 5.3 5.4 5.8 6.1 6.5 6.7
7.2 7.4 7.5 7.6 7.6 7.6 7.4 7.2 6.9 6.6 6.4 6.2 6.0 5.9 5.8 5.8 5.3 5.1 4.8 4.8 4.9 5.0 5.0 5.1 5.1 5.2 5.2 5.0 4.8 4.7 4.7 4.8 5.1 5.4 5.4 5.3 5.3 5.5 5.7 5.8 6.1 6.2 6.7
7.2 7.3 7.3 7.2 7.2 7.0 6.7 6.5 6.3 6.1 6.0 5.8 5.6 5.6 5.5 5.1 4.9 4.7 4.7 4.8 5.0 5.0 5.1 5.1 5.1 5.1 5.1 5.0 4.9 4.9 5.0 5.3 5.4 5.3 5.3 5.2 5.2 5.4 5.8 5.8 6.0 6.4 6.9
7.1 7.0 7.0 7.0 6.8 6.6 6.4 6.1 6.0 5.8 5.7 5.6 5.3 5.1 4.9 4.8 4.8 4.7 4.7 4.8 4.9 5.0 5.1 5.2 5.2 5.1 5.2 5.1 5.1 5.3 5.6 5.6 5.4 5.5 5.4 5.5 5.7 5.8 5.8 5.8 6.1 6.7 7.0
6.9 6.9 6.8 6.6 6.5 6.3 6.0 5.9 5.7 5.5 5.4 5.3 5.1 5.0 4.9 4.8 4.7 4.8 4.8 4.8 4.8 5.0 5.1 5.0 5.1 5.1 5.1 5.0 5.1 5.3 5.6 5.6 5.4 5.3 5.4 5.7 5.9 6.1 6.0 5.9 6.6 6.8 6.8
6.8 6.7 6.6 6.4 6.2 6.0 5.8 5.7 5.5 5.2 5.1 5.0 5.0 4.9 4.7 4.7 4.8 4.8 4.8 4.7 4.8 4.9 5.0 4.9 4.9 5.0 5.0 4.9 5.1 5.2 5.3 5.3 5.2 5.2 5.6 6.0 6.0 6.1 6.2 6.5 6.4 6.8 6.9
6.7 6.5 6.4 6.2 6.1 5.9 5.7 5.4 5.3 4.8 4.8 4.7 4.6 4.6 4.6 4.6 4.6 4.6 4.5 4.6 4.8 4.8 4.8 4.8 4.9 4.9 4.8 4.8 4.9 5.0 5.0 4.8 5.0 5.3 5.8 6.1 6.1 6.3 6.5 6.6 6.5 6.7 6.9
6.7 6.5 6.3 6.1 5.9 5.6 5.1 4.8 4.7 4.7 4.6 4.5 4.5 4.5 4.6 4.5 4.5 4.4 4.5 4.8 4.7 4.7 4.8 4.9 4.9 4.8 4.9 5.0 5.1 5.0 4.9 5.1 5.4 5.7 5.7 5.7 6.0 6.2 6.1 6.2 6.4 6.8 6.8
Wind_Speed
15 15 14 17 18 19 18 18 17 14 10 9 9 9 9 9 8 11 11 11 12 16 16 14 15 14 9 8 9 7 7 5 2 3 4 3 4 5 7 8 6 6 6
15 15 16 17 17 19 19 18 17 16 13 9 9 8 9 10 10 12 11 12 13 15 15 15 14 15 9 10 9 8 5 3 2 3 4 3 3 5 7 8 7 8 8
17 17 18 19 18 19 19 18 17 16 15 14 10 8 8 6 8 8 7 11 14 16 18 16 16 14 11 9 9 8 8 5 4 3 3 3 5 6 5 6 6 5 7
17 17 19 20 20 19 18 18 18 17 15 16 13 13 11 10 9 8 8 10 16 17 16 16 16 13 13 9 9 9 6 4 4 2 3 6 5 4 5 5 5 4 7
18 19 20 20 19 18 17 16 17 18 16 16 16 12 13 9 7 7 10 11 12 14 14 15 14 12 13 12 9 9 8 4 1 2 4 5 5 6 6 7 5 4 6
18 18 18 18 19 18 18 17 19 18 18 17 18 17 15 13 9 11 10 9 8 10 16 17 15 16 15 11 11 12 9 7 4 3 4 6 6 6 6 7 8 8 7
18 18 19 20 19 20 20 18 20 20 19 19 18 18 17 14 14 12 10 12 10 9 10 14 12 14 15 15 12 9 8 7 6 7 6 5 6 5 5 6 7 8 6
16 19 20 19 19 20 20 19 20 19 19 18 18 15 16 12 10 11 10 10 8 7 9 14 17 16 14 12 13 8 6 7 5 9 5 6 6 5 6 6 7 8 8
11 17 19 17 17 18 19 19 17 17 17 17 15 15 14 15 11 11 9 9 7 6 12 17 12 11 13 12 10 3 5 5 6 5 7 8 6 6 6 5 6 7 9
3 7 11 15 15 15 14 15 15 16 15 15 13 11 14 13 11 9 12 12 8 11 12 12 11 13 12 14 9 6 5 5 4 6 10 8 6 7 6 6 7 8 9
1 4 7 9 11 11 11 12 12 13 13 13 12 10 11 13 12 10 10 10 9 11 14 13 12 11 10 8 6 5 4 6 10 11 10 11 9 7 7 7 8 8 9
1 1 3 5 6 8 9 9 9 10 10 10 10 12 9 10 11 10 9 8 7 8 7 9 10 10 10 8 6 6 7 11 12 11 11 11 8 11 10 9 11 10 10
3 2 4 4 5 5 5 6 6 6 6 5 5 4 5 5 5 6 8 8 10 9 8 10 8 9 7 6 7 9 11 11 12 12 11 12 12 12 10 11 10 10 9
5 4 5 6 6 5 6 5 5 4 7 7 7 7 7 8 8 9 9 10 11 11 11 8 8 7 7 7 9 10 12 11 12 12 12 13 14 14 14 12 12 11 11
2 4 5 6 7 8 8 9 8 8 9 9 9 8 8 9 9 9 8 9 9 10 10 9 7 5 4 5 10 9 12 13 12 13 14 14 15 14 12 11 12 12 12
6 6 6 8 9 9 10 10 10 10 10 11 11 10 11 11 11 11 11 12 10 11 9 7 6 5 5 8 8 11 14 14 14 14 15 15 14 13 13 13 14 15 14
9 10 9 10 10 11 11 12 12 11 12 13 12 12 11 12 12 12 12 11 11 7 5 4 4 7 8 9 12 10 12 13 14 16 15 15 13 12 15 18 17 16 16
10 10 10 11 12 12 13 13 13 13 13 13 13 13 14 14 13 12 10 8 5 5 4 5 5 8 7 3 5 7 12 13 16 16 17 17 18 17 16 16 16 16 13
9 9 10 12 12 13 14 15 15 15 15 15 14 14 13 13 11 8 6 3 2 3 5 5 5 7 8 2 6 8 12 13 16 16 17 17 18 19 12 16 18 17 13
9 10 11 12 13 13 14 15 15 15 14 14 13 10 9 8 7 5 5 3 1 1 3 5 6 5 9 7 5 8 9 13 11 16 17 16 19 19 11 15 15 14 16
13 12 12 12 13 13 14 16 14 14 12 11 10 9 8 7 6 5 3 2 2 3 4 5 7 9 8 9 7 8 10 10 11 12 13 13 13 16 18 19 16 15 14
15 14 13 13 13 14 13 14 13 12 11 11 9 8 8 5 4 4 3 2 3 4 5 5 7 6 8 8 10 12 12 14 12 14 11 13 16 19 19 15 21 20 12
14 14 15 15 12 12 11 13 11 10 10 9 9 8 7 5 5 4 4 4 5 5 5 5 6 7 7 8 10 15 21 21 14 13 17 24 24 23 17 20 21 17 11
15 15 16 15 13 11 11 11 10 9 9 9 8 6 6 4 5 3 4 4 4 5 5 5 6 7 8 8 10 12 13 17 16 17 14 14 17 18 16 13 11 10 8
14 14 14 14 14 12 11 10 9 8 8 7 6 5 4 4 4 4 4 4 5 5 5 5 6 7 8 9 15 15 13 13 16 17 12 12 12 12 11 9 10 7 7
15 14 14 15 13 12 10 9 8 7 6 6 5 4 4 3 3 3 1 9 3 4 5 9 6 7 11 18 20 20 23 25 23 11 10 11 11 11 12 11 9 8 8
Wind_Direction
184 178 186 182 185 189 192 193 193 197 193 190 189 195 196 203 201 208 207 191 195 193 191 189 180 187 188 181 169 163 175 169 146 262 239 228 228 246 240 232 262 245 256
184 187 190 194 197 196 199 200 202 199 201 201 199 204 206 208 212 209 204 205 200 193 191 194 186 189 186 175 173 182 176 162 164 298 288 299 194 202 235 256 253 258 284
198 195 198 201 202 205 205 209 209 206 203 209 199 199 203 207 209 205 204 208 203 199 200 192 189 191 188 185 183 187 189 189 178 236 306 292 309 326 232 228 258 270 265
211 204 199 203 205 206 206 210 210 209 207 203 202 205 204 212 209 209 207 208 205 205 200 194 190 187 196 187 187 187 191 208 206 181 227 279 299 287 290 187 215 239 258
210 207 202 203 205 205 206 209 211 214 207 204 212 207 219 223 215 210 215 210 201 199 197 197 188 192 195 190 183 176 177 146 136 266 249 251 260 253 278 291 292 254 250
215 218 207 201 204 204 204 204 207 208 208 208 210 213 215 212 192 206 211 204 204 200 198 195 193 198 200 186 183 173 156 155 151 255 251 246 272 278 268 276 285 297 288
218 213 210 204 203 203 202 203 206 210 207 206 210 211 213 211 206 211 213 204 202 199 193 190 196 201 197 190 167 163 155 165 175 196 224 257 261 271 277 276 284 288 290
217 218 210 209 206 205 201 203 206 210 206 207 212 206 208 210 214 201 212 219 197 189 186 195 200 198 186 157 165 144 169 196 199 206 232 249 241 248 256 269 285 286 284
214 219 218 213 211 208 209 208 209 213 211 208 210 207 211 214 207 219 199 205 185 171 204 198 197 139 156 169 160 123 177 209 203 209 227 237 241 251 260 263 264 269 281
207 218 223 221 219 216 208 209 214 216 213 208 212 215 217 217 213 199 216 202 189 201 186 177 157 162 154 171 161 157 190 202 214 226 233 240 250 256 258 254 253 259 269
220 192 204 207 211 215 206 206 210 215 211 212 208 202 213 213 213 212 209 198 179 186 182 170 152 149 158 156 162 182 185 217 232 235 236 242 251 258 261 255 259 265 265
310 188 178 176 181 190 192 198 207 211 213 212 207 212 198 209 213 204 199 183 143 142 141 134 157 169 151 154 165 193 228 231 236 240 241 248 250 250 257 261 262 264 266
273 165 157 159 162 167 174 183 186 196 199 191 176 175 160 156 150 115 107 114 123 120 141 160 144 129 143 175 191 219 238 241 246 248 251 251 253 256 256 260 262 265 264
236 222 171 146 137 134 134 151 148 120 106 113 112 112 118 124 126 130 135 140 147 143 146 133 127 138 157 207 229 239 244 257 249 251 254 256 254 258 260 260 261 265 267
162 199 191 155 140 130 114 95 102 105 113 110 112 114 111 108 112 116 117 120 119 130 131 125 125 166 201 234 252 272 276 263 261 257 255 257 256 263 265 267 266 268 267
90 99 124 119 108 108 103 107 107 108 110 104 100 105 106 106 111 114 123 122 114 118 118 138 169 191 225 241 265 267 279 277 270 264 267 266 236 241 247 239 246 258 268
98 96 97 98 99 98 102 100 102 105 102 101 107 109 112 109 106 107 103 102 108 130 134 157 210 245 257 243 251 261 275 276 275 275 275 271 265 244 253 230 225 239 247
112 107 107 105 103 103 102 104 100 98 100 101 104 107 108 106 109 104 108 123 134 149 207 246 248 249 262 181 257 259 284 279 275 273 272 272 271 266 247 246 256 252 246
107 101 103 107 110 110 112 111 108 107 106 109 112 114 116 115 116 121 123 125 178 228 229 248 282 285 288 224 241 283 293 286 281 278 276 272 271 267 229 245 256 258 258
117 114 112 112 111 112 114 112 112 114 112 114 114 120 112 113 104 115 154 148 138 299 300 305 307 313 292 290 278 304 307 296 290 284 280 267 259 265 231 235 240 250 254
125 125 118 114 115 118 118 114 115 111 112 108 105 102 108 109 100 98 80 52 9 329 324 306 314 310 315 315 354 331 320 310 311 302 295 289 281 237 243 238 243 239 249
136 131 124 118 118 120 120 115 112 116 114 110 109 102 90 87 83 74 58 14 350 329 322 332 317 321 326 344 337 334 317 316 306 299 294 292 303 306 272 238 241 248 225
139 135 127 120 116 115 115 111 110 113 111 105 100 97 92 82 61 41 22 359 351 345 337 325 326 325 335 327 339 349 337 317 306 295 292 289 280 279 279 255 249 240 229
142 134 129 122 115 109 105 106 111 112 110 104 98 91 70 57 45 43 23 13 3 347 336 337 333 339 332 334 350 327 321 319 311 301 289 292 286 274 267 267 247 230 217
141 140 131 126 118 111 104 100 105 113 109 101 89 79 66 48 53 55 25 25 51 7 344 352 347 340 329 343 328 321 324 319 311 297 284 280 282 279 273 256 245 223 205
142 137 128 122 116 108 101 95 92 99 111 106 90 55 67 57 31 29 82 123 87 356 29 23 355 335 338 335 329 331 331 323 327 314 300 289 283 277 276 275 252 216 220